Location: Kouchibouguac National Park
(46.8081°N, 64.9088°W)
Time: 01:32:39
(UTC-03:00)

Amateur Radio Satellites - All Passes

Search period start: 21 April 2014 01:02
Search period end: 22 April 2014 01:02
Location: Kouchibouguac National Park, 46.8081°N, 64.9088°W

Satellite Date Start Highest point End Downlink Frequencies (MHz)
Time Altitude Azimuth
SO-50 21 Apr 01:09:21 01:13:37 37° 242° (WSW) 01:17:56 436.795 FM
OPAL 21 Apr 01:29:11 01:32:20 17° 54° (NE) 01:35:30 ?
PCSat 21 Apr 01:39:24 01:44:49 73° 305° (NW) 01:50:16 145.825 MHz
UOSAT-12 21 Apr 01:43:36 01:48:08 43° 45° (NE) 01:52:37 437.025 FM, 437.400 FM
KITSAT 1 21 Apr 01:50:50 01:56:08 19° 101° (ESE) 02:01:26 435.175 FM
Uribyol 2 21 Apr 02:00:30 02:01:53 11° 86° (E) 02:03:16 436.500 FM
Oscar 10/S400 21 Apr 02:12:42 02:27:13 18° 124° (SE) 02:55:52 145.825 - 145.975 CW/USB, Beacon 145.810 USB
Sapphire 21 Apr 02:38:52 02:43:44 33° 316° (NW) 02:48:37 437.095 MHz 1200 baud AX-25 AFSK
AO-27 21 Apr 02:39:15 02:43:29 25° 93° (E) 02:47:41 436.795 MHz FM
AO-Echo 21 Apr 02:41:30 02:44:56 19° 91° (E) 02:48:18 ?
ITAMSAT 1 21 Apr 02:49:22 02:53:53 30° 95° (E) 02:58:22 435.822 SSB
Oscar 19 21 Apr 02:50:22 02:55:30 55° 100° (E) 03:00:35 437.125 CW, 437.150 USB
Oscar 16 21 Apr 02:58:53 03:04:06 70° 103° (ESE) 03:09:17 437.025 USB, Beacon 2401.1428
OPAL 21 Apr 03:05:31 03:10:33 84° 253° (WSW) 03:15:43 ?
UOSAT-12 21 Apr 03:24:01 03:28:10 31° 244° (WSW) 03:32:17 437.025 FM, 437.400 FM
PCSat 21 Apr 03:25:26 03:29:12 19° 327° (NNW) 03:32:58 145.825 MHz
TMSAT-1 21 Apr 03:28:02 03:31:23 17° 89° (E) 03:34:43 436.925 FM
Uribyol 2 21 Apr 03:36:59 03:42:12 80° 104° (ESE) 03:47:23 436.500 FM
KITSAT 1 21 Apr 03:42:13 03:50:20 82° 122° (ESE) 03:58:29 435.175 FM
AO-27 21 Apr 04:18:16 04:23:15 48° 291° (WNW) 04:28:12 436.795 MHz FM
Gurwin Techsat 1B 21 Apr 04:19:23 04:24:40 63° 101° (ESE) 04:29:55 435.225 FM
AO-Echo 21 Apr 04:19:24 04:24:05 53° 290° (WNW) 04:28:39 ?
JAS-1B 21 Apr 04:20:16 04:24:48 24° 93° (E) 04:29:26 435.800 - 435.900 CW/SSB
Sapphire 21 Apr 04:27:19 04:28:56 11° 340° (NNW) 04:30:34 437.095 MHz 1200 baud AX-25 AFSK
ITAMSAT 1 21 Apr 04:28:40 04:33:29 41° 293° (WNW) 04:38:17 435.822 SSB
Oscar 19 21 Apr 04:30:25 04:34:29 24° 299° (WNW) 04:38:32 437.125 CW, 437.150 USB
Oscar 16 21 Apr 04:39:19 04:42:56 19° 301° (WNW) 04:46:33 437.025 USB, Beacon 2401.1428
Uosat F 21 Apr 04:39:25 04:43:34 26° 94° (E) 04:47:42 435.120 FM
OPAL 21 Apr 04:48:38 04:50:15 11° 272° (W) 04:51:53 ?
AO-7 21 Apr 04:49:48 04:56:40 28° 93° (E) 05:03:30 29.400 - 29.500 MHz
TMSAT-1 21 Apr 05:06:35 05:11:53 73° 287° (WNW) 05:17:09 436.925 FM
Uribyol 2 21 Apr 05:17:49 05:21:03 17° 303° (WNW) 05:24:18 436.500 FM
KITSAT 1 21 Apr 05:39:21 05:46:37 34° 326° (NW) 05:53:54 435.175 FM
STRAND 1 21 Apr 05:47:50 05:51:36 21° 60° (ENE) 05:55:22 ?
Gurwin Techsat 1B 21 Apr 06:00:14 06:04:12 22° 300° (WNW) 06:08:09 435.225 FM
RS-15 21 Apr 06:02:05 06:11:04 29° 104° (ESE) 06:19:49 29.354 - 29.394 USB, Beacon 29.352 USB
MaSat-1 21 Apr 06:03:44 06:05:45 17° 53° (NE) 06:07:57 437.345 MHz
JAS-1B 21 Apr 06:10:25 06:15:54 51° 292° (WNW) 06:21:31 435.800 - 435.900 CW/SSB
Uosat F 21 Apr 06:17:48 06:22:33 44° 292° (WNW) 06:27:16 435.120 FM
Hamsat 21 Apr 06:21:58 06:23:48 12° 88° (E) 06:25:38 145.90 MHz
AO-7 21 Apr 06:41:54 06:50:12 75° 293° (WNW) 06:58:29 29.400 - 29.500 MHz
TMSAT-1 21 Apr 06:48:41 06:50:54 13° 306° (NW) 06:53:08 436.925 FM
AO-40 21 Apr 06:57:45 11:05:22 26° 155° (SSE) 12:51:11 Beacon 2401.320
PCSat 21 Apr 06:59:28 07:01:13 11° 20° (NNE) 07:02:59 145.825 MHz
STRAND 1 21 Apr 07:25:19 07:30:22 61° 258° (WSW) 07:35:27 ?
JAS-2 21 Apr 07:36:22 07:40:53 26° 94° (E) 07:45:43 435.800 - 435.900 CW/SSB, 435.910 FM
KITSAT 1 21 Apr 07:39:15 07:44:52 20° 354° (N) 07:50:28 435.175 FM
MaSat-1 21 Apr 07:41:31 07:44:09 29° 246° (WSW) 07:47:11 437.345 MHz
Hamsat 21 Apr 07:55:57 08:00:18 74° 285° (WNW) 08:04:39 145.90 MHz
Sapphire 21 Apr 07:57:08 08:00:58 19° 34° (NNE) 08:04:47 437.095 MHz 1200 baud AX-25 AFSK
SO-67 21 Apr 08:10:31 08:13:41 30° 96° (E) 08:16:48 435.3500 MHz FM
RS-15 21 Apr 08:10:51 08:22:09 86° 307° (NW) 08:33:11 29.354 - 29.394 USB, Beacon 29.352 USB
AO-7 21 Apr 08:35:55 08:41:42 22° 315° (NW) 08:47:30 29.400 - 29.500 MHz
PCSat 21 Apr 08:41:29 08:46:24 34° 44° (NE) 08:51:18 145.825 MHz
HO-68 21 Apr 09:14:51 09:19:48 19° 89° (E) 09:24:42 435.675 MHz FM
JAS-2 21 Apr 09:21:05 09:26:13 49° 291° (WNW) 09:31:50 435.800 - 435.900 CW/SSB, 435.910 FM
KITSAT 1 21 Apr 09:36:57 09:43:32 26° 24° (NNE) 09:50:04 435.175 FM
Sapphire 21 Apr 09:39:52 09:45:20 76° 56° (NE) 09:50:44 437.095 MHz 1200 baud AX-25 AFSK
SO-67 21 Apr 09:44:05 09:46:40 19° 294° (WNW) 09:49:13 435.3500 MHz FM
PCSat 21 Apr 10:24:48 10:30:01 48° 245° (WSW) 10:35:11 145.825 MHz
RS-15 21 Apr 10:26:03 10:36:09 38° 335° (NNW) 10:46:09 29.354 - 29.394 USB, Beacon 29.352 USB
Saudisat 1A 21 Apr 10:43:48 10:47:26 25° 115° (ESE) 10:51:05 436.775 MHz
HO-68 21 Apr 11:01:10 11:08:24 88° 288° (WNW) 11:15:36 435.675 MHz FM
FUNcube-1 21 Apr 11:09:33 11:13:00 23° 94° (E) 11:16:29 145.950 - 145.970 MHz USB
Oscar 11 21 Apr 11:13:19 11:17:42 75° 103° (ESE) 11:22:04 145.825 FM, Beacon 2401.500 USB
Sapphire 21 Apr 11:24:31 11:28:08 18° 254° (WSW) 11:31:43 437.095 MHz 1200 baud AX-25 AFSK
KITSAT 1 21 Apr 11:32:28 11:40:35 67° 50° (NE) 11:48:36 435.175 FM
Saudisat 1A 21 Apr 12:22:29 12:26:48 48° 313° (NW) 12:31:09 436.775 MHz
Oscar 19 21 Apr 12:33:23 12:36:38 17° 57° (ENE) 12:39:54 437.125 CW, 437.150 USB
ITAMSAT 1 21 Apr 12:36:06 12:36:44 10° 51° (NE) 12:37:23 435.822 SSB
Oscar 16 21 Apr 12:41:22 12:45:09 21° 60° (ENE) 12:48:56 437.025 USB, Beacon 2401.1428
RS-15 21 Apr 12:42:57 12:52:24 31° 10° (N) 13:01:51 29.354 - 29.394 USB, Beacon 29.352 USB
FUNcube-1 21 Apr 12:45:36 12:49:32 37° 291° (WNW) 12:53:31 145.950 - 145.970 MHz USB
HO-68 21 Apr 12:50:02 12:55:12 22° 309° (NW) 13:00:22 435.675 MHz FM
Oscar 11 21 Apr 12:51:05 12:53:20 14° 301° (WNW) 12:55:36 145.825 FM, Beacon 2401.500 USB
Uribyol 2 21 Apr 13:19:54 13:24:00 25° 61° (ENE) 13:28:07 436.500 FM
KITSAT 1 21 Apr 13:28:28 13:35:30 34° 252° (WSW) 13:42:29 435.175 FM
AO-Echo 21 Apr 13:56:36 14:01:21 37° 67° (ENE) 14:05:59 ?
AO-27 21 Apr 14:00:05 14:05:04 50° 69° (ENE) 14:10:05 436.795 MHz FM
AO-7 21 Apr 14:04:39 14:08:42 15° 37° (NE) 14:12:44 29.400 - 29.500 MHz
Saudisat 1A 21 Apr 14:05:19 14:07:29 13° 335° (NNW) 14:09:39 436.775 MHz
Gurwin Techsat 1B 21 Apr 14:05:31 14:09:22 21° 59° (ENE) 14:13:14 435.225 FM
ITAMSAT 1 21 Apr 14:10:07 14:15:12 60° 71° (ENE) 14:20:18 435.822 SSB
Oscar 19 21 Apr 14:10:12 14:15:21 79° 256° (WSW) 14:20:34 437.125 CW, 437.150 USB
Oscar 16 21 Apr 14:18:58 14:24:03 63° 258° (WSW) 14:29:12 437.025 USB, Beacon 2401.1428
TMSAT-1 21 Apr 14:51:14 14:55:58 35° 65° (ENE) 15:00:44 436.925 FM
RS-15 21 Apr 14:56:50 15:07:37 58° 42° (NE) 15:18:33 29.354 - 29.394 USB, Beacon 29.352 USB
Uribyol 2 21 Apr 14:58:10 15:03:11 52° 260° (W) 15:08:14 436.500 FM
JAS-1B 21 Apr 15:07:55 15:14:34 35° 64° (ENE) 15:20:20 435.800 - 435.900 CW/SSB
OPAL 21 Apr 15:13:17 15:17:09 21° 94° (E) 15:21:00 ?
ISS 21 Apr 15:14:41 15:17:36 28° 141° (SE) 15:20:32 145.800 FM
SO-50 21 Apr 15:27:03 15:31:07 35° 118° (ESE) 15:35:14 436.795 FM
Oscar 10/S400 21 Apr 15:34:33 16:17:44 13° 273° (W) 17:16:52 145.825 - 145.975 CW/USB, Beacon 145.810 USB
AO-Echo 21 Apr 15:35:30 15:40:09 32° 264° (W) 15:44:43 ?
AO-27 21 Apr 15:40:42 15:44:51 24° 267° (W) 15:49:02 436.795 MHz FM
Gurwin Techsat 1B 21 Apr 15:43:35 15:48:51 66° 258° (WSW) 15:54:10 435.225 FM
ITAMSAT 1 21 Apr 15:51:21 15:55:06 20° 269° (W) 15:58:53 435.822 SSB
AO-7 21 Apr 15:51:44 15:59:34 50° 60° (ENE) 16:07:26 29.400 - 29.500 MHz
Oscar 19 21 Apr 15:54:21 15:55:33 11° 275° (W) 15:56:46 437.125 CW, 437.150 USB
Uosat F 21 Apr 15:55:19 16:00:08 49° 69° (ENE) 16:04:58 435.120 FM
TMSAT-1 21 Apr 16:31:01 16:35:52 36° 264° (W) 16:40:45 436.925 FM
ISS 21 Apr 16:50:51 16:54:10 60° 339° (NNW) 16:57:31 145.800 FM
OPAL 21 Apr 16:51:16 16:56:25 61° 292° (WNW) 17:01:33 ?
JAS-1B 21 Apr 16:57:29 17:05:06 51° 259° (W) 17:11:31 435.800 - 435.900 CW/SSB
SO-50 21 Apr 17:07:32 17:11:41 36° 317° (NW) 17:15:53 436.795 FM
RS-15 21 Apr 17:09:33 17:19:55 52° 246° (WSW) 17:30:34 29.354 - 29.394 USB, Beacon 29.352 USB
Hamsat 21 Apr 17:18:45 17:20:53 14° 60° (ENE) 17:23:02 145.90 MHz
Saudisat 1A 21 Apr 17:28:40 17:30:50 13° 25° (NNE) 17:33:00 436.775 MHz
Uosat F 21 Apr 17:35:11 17:39:11 24° 267° (W) 17:43:12 435.120 FM
UOSAT-12 21 Apr 17:37:29 17:41:45 40° 119° (ESE) 17:46:06 437.025 FM, 437.400 FM
AO-7 21 Apr 17:44:40 17:52:27 44° 261° (W) 18:00:19 29.400 - 29.500 MHz
JAS-2 21 Apr 17:54:12 17:57:23 16° 57° (ENE) 18:00:28 435.800 - 435.900 CW/SSB, 435.910 FM
ISS 21 Apr 18:28:12 18:31:18 34° 359° (N) 18:34:25 145.800 FM
OPAL 21 Apr 18:32:50 18:34:17 11° 311° (NW) 18:35:45 ?
SO-67 21 Apr 18:47:46 18:50:12 18° 66° (ENE) 18:52:39 435.3500 MHz FM
SO-50 21 Apr 18:52:03 18:53:35 12° 340° (NNW) 18:55:08 436.795 FM
Hamsat 21 Apr 18:52:07 18:56:19 72° 258° (WSW) 19:00:36 145.90 MHz
Saudisat 1A 21 Apr 19:07:11 19:11:30 49° 47° (NE) 19:15:46 436.775 MHz
UOSAT-12 21 Apr 19:17:47 19:21:59 34° 319° (NW) 19:26:16 437.025 FM, 437.400 FM
STRAND 1 21 Apr 19:33:07 19:37:49 36° 97° (E) 19:42:29 ?
JAS-2 21 Apr 19:36:14 19:41:56 84° 256° (WSW) 19:47:13 435.800 - 435.900 CW/SSB, 435.910 FM
HO-68 21 Apr 19:47:16 19:52:32 23° 52° (NE) 19:57:49 435.675 MHz FM
ISS 21 Apr 20:05:08 20:08:27 56° 19° (NNE) 20:11:46 145.800 FM
SO-67 21 Apr 20:19:58 20:23:09 33° 263° (W) 20:26:22 435.3500 MHz FM
Oscar 11 21 Apr 20:38:53 20:39:55 11° 57° (ENE) 20:40:58 145.825 FM, Beacon 2401.500 USB
Saudisat 1A 21 Apr 20:47:19 20:50:50 24° 246° (WSW) 20:54:19 436.775 MHz
UOSAT-12 21 Apr 21:01:53 21:03:33 12° 341° (NNW) 21:05:14 437.025 FM, 437.400 FM
STRAND 1 21 Apr 21:12:26 21:16:58 33° 295° (WNW) 21:21:29 ?
JAS-2 21 Apr 21:26:04 21:27:49 11° 273° (W) 21:29:31 435.800 - 435.900 CW/SSB, 435.910 FM
HO-68 21 Apr 21:32:15 21:39:24 88° 253° (WSW) 21:46:37 435.675 MHz FM
ISS 21 Apr 21:42:03 21:45:04 31° 218° (SW) 21:48:05 145.800 FM
MaSat-1 21 Apr 21:47:16 21:49:59 51° 117° (ESE) 21:52:28 437.345 MHz
FUNcube-1 21 Apr 22:09:18 22:12:49 27° 67° (ENE) 22:16:19 145.950 - 145.970 MHz USB
Oscar 11 21 Apr 22:11:05 22:15:23 83° 75° (ENE) 22:19:44 145.825 FM, Beacon 2401.500 USB
SO-50 21 Apr 22:15:44 22:18:53 18° 31° (NNE) 22:22:02 436.795 FM
HO-68 21 Apr 23:23:27 23:28:04 18° 272° (W) 23:32:44 435.675 MHz FM
PCSat 21 Apr 23:29:02 23:31:42 14° 103° (ESE) 23:34:22 145.825 MHz
FUNcube-1 21 Apr 23:45:28 23:49:11 30° 264° (W) 23:52:54 145.950 - 145.970 MHz USB
Oscar 11 21 Apr 23:51:19 23:52:12 11° 273° (W) 23:53:05 145.825 FM, Beacon 2401.500 USB
SO-50 21 Apr 23:55:34 00:00:13 75° 51° (NE) 00:04:55 436.795 FM
UOSAT-12 22 Apr 00:24:37 00:28:01 19° 31° (NNE) 00:31:23 437.025 FM, 437.400 FM
Sapphire 22 Apr 00:24:49 00:29:46 38° 113° (ESE) 00:34:44 437.095 MHz 1200 baud AX-25 AFSK
